Location: Novokuznetsk
(53.7500°N, 87.1000°E)
Time: 23:44:34
(UTC+06:00)

ISS - Pass Details

Date: 20 May 2021
Orbit: 417 x 422 km, 51.6° (Epoch: 16 June)

Event Time Altitude Azimuth Distance (km) Brightness Sun altitude
Rises 22:16:50 0° 266° (W) 2,366 0.4 -12.3°
Reaches altitude 10° 22:18:57 10° 262° (W) 1,503 -0.7 -12.5°
Maximum altitude 22:22:17 61° 182° (S) 482 -3.8 -12.7°
Enters shadow 22:25:32 11° 102° (ESE) 1,473 -1.3 -12.9°
